Location: Richterswil
(47.2055°N, 8.7071°E)
Time: 05:15:46
(UTC+00:00)

STARLINK-1301 - Pass Details

Date: 07 June 2020
Orbit: 548 x 551 km, 53.0° (Epoch: 14 July)

Event Time Altitude Azimuth Distance (km) Brightness Sun altitude
Exits shadow 22:39:38 - 94° (E) 1,961 6.3 -19.3°
Enters shadow 23:43:58 -57° 235° (SW) 11,319 10.2 -19.9°
Maximum altitude 00:16:10 64° 146° (SE) 618 3.6 -19.0°
